This is the latest recevied weather packets stored in our database for station/object W1REE. If no packets are shown the sender has not sent any weather packets the latest 10 day(s).
| Time | Temp. | Humidity | Pressure | Rain* | Wind** | Luminosity | Snow |
|---|---|---|---|---|---|---|---|
| 1777552148 | 2.78° C | 97% | 1021.8 hPa | 0 mm | - | 6 W/m² | - |
| 1777551846 | 2.78° C | 97% | 1022 hPa | 0 mm | - | 5 W/m² | - |
| 1777551544 | 2.22° C | 97% | 1021.9 hPa | 0 mm | - | 3 W/m² | - |
| 1777551240 | 2.22° C | 97% | 1022 hPa | 0 mm | - | 2 W/m² | - |
| 1777550937 | 2.22° C | 97% | 1022 hPa | 0 mm | - | 2 W/m² | - |
| 1777550330 | 2.22° C | 97% | 1021.9 hPa | 1.27 mm | - | 1 W/m² | - |
| 1777548515 | 2.22° C | 97% | 1022 hPa | 1.78 mm | - | 0 W/m² | - |
| 1777548211 | 2.22° C | 97% | 1022.3 hPa | 0 mm | - | 0 W/m² | - |
| 1777547301 | 2.22° C | 96% | 1022 hPa | 0 mm | - | 0 W/m² | - |
| 1777546392 | 2.22° C | 96% | 1022.2 hPa | 0 mm | - | 0 W/m² | - |
| 1777545481 | 2.22° C | 96% | 1022.2 hPa | 0 mm | - | 0 W/m² | - |
| 1777545179 | 2.22° C | 96% | 1022.2 hPa | 1.78 mm | - | 0 W/m² | - |
| 1777544876 | 1.67° C | 96% | 1022.3 hPa | 1.78 mm | - | 0 W/m² | - |
| 1777544572 | 1.67° C | 96% | 1022.3 hPa | 0 mm | - | 0 W/m² | - |
| 1777544269 | 2.22° C | 96% | 1022 hPa | 1.27 mm | - | 0 W/m² | - |
| 1777543054 | 2.22° C | 96% | 1022.3 hPa | 1.27 mm | - | 0 W/m² | - |
| 1777542447 | 2.22° C | 95% | 1022.4 hPa | 0 mm | - | 0 W/m² | - |
| 1777541841 | 2.22° C | 95% | 1022.4 hPa | 1.78 mm | - | 0 W/m² | - |
| 1777541538 | 2.22° C | 95% | 1022.5 hPa | 1.78 mm | - | 0 W/m² | - |
| 1777541234 | 2.22° C | 95% | 1022.6 hPa | 1.27 mm | - | 0 W/m² | - |
| 1777540930 | 2.22° C | 95% | 1022.6 hPa | 1.27 mm | - | 0 W/m² | - |
| 1777540628 | 2.22° C | 95% | 1022.5 hPa | 1.78 mm | - | 0 W/m² | - |
| 1777540325 | 2.22° C | 94% | 1022.6 hPa | 3.56 mm | - | 0 W/m² | - |
| 1777540021 | 2.22° C | 94% | 1022.6 hPa | 3.05 mm | - | 0 W/m² | - |
| 1777539109 | 2.22° C | 94% | 1022.6 hPa | 1.27 mm | - | 0 W/m² | - |
* Rain latest hour (hover to see other rain measurements)
** Current wind speed in m/s (hover to see current wind gust speed)